Regional Weather Roundup
Issued by NWS Huntsville, AL

Home | Current Version | Previous Version | Text Only | Print | Product List | Glossary On
Versions: 1 2 3 4 5 6 7 8 9 10 11 12 13 14 15 16 17 18 19 20 21 22 23 24 25 26 27
000
ASUS44 KHUN 220910
RWRHUN

WEATHER ROUNDUP FOR THE TENNESSEE VALLEY
NATIONAL WEATHER SERVICE HUNTSVILLE AL
400 AM CDT TUE AUG 22 2017

ALZ001>004-221000-
NORTHWEST ALABAMA

CITY           SKY/WX    TMP DP  RH WIND       PRES   REMARKS
SHOALS AIRPORT CLEAR     73  70  90 CALM      30.07F
$$

ALZ005>007-016-221000-
NORTH CENTRAL ALABAMA

CITY           SKY/WX    TMP DP  RH WIND       PRES   REMARKS
DECATUR AP     CLEAR     69  69 100 CALM      30.07F FOG
HUNTSVILLE AP  CLEAR     74  72  93 E3        30.07F
MERIDIANVILLE  CLEAR     70  68  94 CALM      30.08F
REDSTONE ARSN  CLEAR     73  71  93 S3        30.06F
VINEMONT AP    FAIR      68  67  97 CALM      30.12F
$$

ALZ008>010-221000-
NORTHEAST ALABAMA

CITY           SKY/WX    TMP DP  RH WIND       PRES   REMARKS
ALBERTVILLE    CLEAR     72  72 100 SE3       30.10F
FORT PAYNE     CLEAR     68  64  88 CALM      30.09F FOG
SCOTTSBORO HCN   N/A     70 N/A N/A MISG        N/A
$$

TNZ076-096-097-221000-
SOUTHEASTERN MIDDLE TENNESSEE

CITY           SKY/WX    TMP DP  RH WIND       PRES   REMARKS
TULLAHOMA      CLEAR     68  66  94 CALM      30.10F
WINCHESTER     CLEAR     70  70 100 SE3       30.09F
$$

...SURROUNDING SITES...

CITY           SKY/WX    TMP DP  RH WIND       PRES   REMARKS
ATLANTA        PTCLDY    75  71  87 CALM      30.12F
ANNISTON       CLEAR     73  71  93 CALM      30.10F
BIRMINGHAM     CLEAR     77  73  87 S3        30.11F
CHATTANOOGA    CLEAR     73  70  90 CALM      30.09F
DALTON         NOT AVBL
GADSDEN        CLEAR     70  70 100 CALM      30.10F
GOLDEN TRNGL   CLEAR     73  66  78 SW3         N/A
HALEYVILLE     FAIR      71  71 100 CALM      30.10F
JACKSON TN     CLEAR     76  74  93 SW7       30.03F
MEMPHIS        CLEAR     77  73  87 SW5       30.03F
NASHVILLE      CLEAR     75  68  78 SW5       30.06F
OXFORD MS      FAIR      75  72  88 S5        30.07S
ROME           CLEAR     71  71 100 CALM      30.09F
SAVANNAH       CLEAR     73  73 100 CALM      30.04S
SELMER         CLEAR     75  73  94 S3        30.04F
TUPELO         CLEAR     74  72  93 CALM      30.05F
TUSCALOOSA     CLEAR     76  76 100 CALM      30.07F FOG
$$

...GULF COAST WEATHER...

CITY           SKY/WX    TMP DP  RH WIND       PRES   REMARKS
GULFPORT       CLEAR     75  74  96 CALM      30.03F
PASCAGOULA     PTCLDY    74  71  91 CALM      30.04F
MOBILE         PTCLDY    75  73  93 NE3       30.06F
GULF SHORES    SUNNY     76  76 100 CALM      30.04S
PENSACOLA      PTCLDY    77  74  90 N5        30.03F
DESTIN         CLEAR     81  75  82 NE5       30.04F
PANAMA CITY    CLEAR     76  74  95 NE5       30.05F
APPALACHICOLA  CLEAR     76  76 100 NE5       30.04F
$$





USA.gov is the U.S. government's official web portal to all federal, state and local government web resources and services.